Project,Study,Ord_Occ,Event_Num,Cast_ID,Date_Time_UTC,Date_Time_PST,Lat_Dec,Lon_Dec,Sta_ID,Line,Sta,Depth,Pressure,PrQ,Temp1,Temp1Q,Temp2,Temp2Q,TempAve,Salt1,Salt1Q,Salt1_Corr,Salt2,Salt2Q,Salt2_Corr,SaltAve_Corr,Ox1,Ox1Q,Ox1_CruiseCorr,Ox1_StaCorr,Ox2,Ox2Q,Ox2_CruiseCorr,Ox2_StaCorr,OxAve_StaCorr,Ox1uM,Ox1uM_CruiseCorr,Ox1uM_StaCorr,Ox2uM,Ox2uM_CruiseCorr,Ox2uM_StaCorr,OxAveuM_StaCorr,FluorV,FluorQ,EstChl_CruiseCorr,EstChl_StaCorr,ISUSV,ISUSQ,EstNO3_CruiseCorr,EstNO3_StaCorr,SigThetaTS1,SigThetaTS1Q,SigThetaTS2,SigThetaTS2Q,BAT,XMiss,TransQ,pH,pHQ,SPAR,SPARQ,PAR,PARQ,PoT1,PoT2,DynHt,SVA,OxSat1,OxSat2,BTL_Depth,BTL_Temp,SaltB,OxB,OxBuM,Chl-a,Phaeo,NO3,NO2,NH4,PO4,SIL
CalCOFI,2101RL,014,,2101_014u,18-Jan-2021 12:01:57,18-Jan-2021 04:01:57,30.84192,-121.59028,093.3 090.0,093.3,090.0,520.000,524.262,,5.8552,,5.8546,,5.8549,34.2767,,34.2825,34.2711,,34.2731,34.2778,0.3100,,0.3243,0.3128,0.3236,,0.3417,0.3277,0.3203,13.482,14.3732,13.7198,14.074,15.4446,14.3678,14.0438,0.0327,,,, ,, , ,27.0049,,27.0005,,0.6741,84.4897,,,,1.8474E+00,,1.0000E-12,,5.8100,5.8095,1.0281,111.498,4.451,4.646,,,,,,,,,,,,
CalCOFI,2101RL,014,,2101_014u,18-Jan-2021 12:02:06,18-Jan-2021 04:02:06,30.84187,-121.59030,093.3 090.0,093.3,090.0,519.000,523.253,,5.8531,,5.8542,,5.8537,34.2770,,34.2828,34.2711,,34.2731,34.2780,0.3132,,0.3277,0.3162,0.3222,,0.3402,0.3262,0.3212,13.618,14.5155,13.8632,14.010,15.5958,14.2997,14.0815,0.0330,,,, ,, , ,27.0054,,27.0006,,0.6740,84.4913,,,,1.8474E+00,,1.0000E-12,,5.8080,5.8092,1.0287,111.431,4.496,4.625,,,,,,,,,,,,
CalCOFI,2101RL,014,,2101_014u,18-Jan-2021 12:02:12,18-Jan-2021 04:02:12,30.84185,-121.59033,093.3 090.0,093.3,090.0,518.000,522.243,,5.8560,,5.8555,,5.8558,34.2767,,34.2825,34.2710,,34.2730,34.2778,0.3144,,0.3290,0.3175,0.3185,,0.3363,0.3223,0.3199,13.674,14.5741,13.9223,13.851,15.6581,14.1305,14.0264,0.0324,,,, ,, , ,27.0048,,27.0004,,0.6741,84.4897,,,,1.8474E+00,,1.0000E-12,,5.8110,5.8105,1.0288,111.483,4.514,4.573,,,,,,,,,,,,
CalCOFI,2101RL,014,,2101_014u,18-Jan-2021 12:02:13,18-Jan-2021 04:02:13,30.84182,-121.59034,093.3 090.0,093.3,090.0,517.000,521.234,,5.8589,,5.8582,,5.8586,34.2763,,34.2821,34.2706,,34.2726,34.2774,0.3155,,0.3301,0.3186,0.3264,,0.3447,0.3307,0.3247,13.720,14.6223,13.9708,14.192,15.7093,14.4933,14.2321,0.0324,,,, ,, , ,27.0041,,26.9997,,0.6740,84.4918,,,,1.8474E+00,,1.0000E-12,,5.8140,5.8134,1.0288,111.536,4.530,4.685,,,,,,,,,,,,
CalCOFI,2101RL,014,,2101_014u,18-Jan-2021 12:02:14,18-Jan-2021 04:02:14,30.84182,-121.59034,093.3 090.0,093.3,090.0,516.000,520.224,,5.8612,,5.8609,,5.8611,34.2757,,34.2815,34.2701,,34.2721,34.2768,0.3181,,0.3328,0.3214,0.3266,,0.3449,0.3309,0.3262,13.834,14.7416,14.0911,14.202,15.8360,14.5040,14.2976,0.0324,,,, ,, , ,27.0033,,26.9990,,0.6741,84.4900,,,,1.8474E+00,,1.0000E-12,,5.8164,5.8161,1.0288,111.597,4.568,4.689,,,,,,,,,,,,
CalCOFI,2101RL,014,,2101_014u,18-Jan-2021 12:02:19,18-Jan-2021 04:02:19,30.84180,-121.59034,093.3 090.0,093.3,090.0,515.000,519.215,,5.8644,,5.8647,,5.8646,34.2750,,34.2808,34.2693,,34.2713,34.2761,0.3160,,0.3306,0.3192,0.3246,,0.3428,0.3288,0.3240,13.740,14.6432,13.9919,14.115,15.7315,14.4114,14.2017,0.0328,,,, ,, , ,27.0024,,26.9978,,0.6740,84.4917,,,,1.8910E+00,,1.0000E-12,,5.8197,5.8200,1.0295,111.673,4.537,4.661,515,,34.2696,0.335,14.59,,,,,,,
CalCOFI,2101RL,014,,2101_014u,18-Jan-2021 12:03:40,18-Jan-2021 04:03:40,30.84141,-121.59052,093.3 090.0,093.3,090.0,514.000,518.206,,5.8728,,5.8732,,5.8730,34.2727,,34.2785,34.2668,,34.2688,34.2737,0.3173,,0.3320,0.3205,0.3245,,0.3427,0.3287,0.3246,13.800,14.7060,14.0552,14.112,15.7982,14.4082,14.2317,0.0329,,,, ,, , ,26.9995,,26.9948,,0.6733,84.5060,,,,1.9002E+00,,1.0000E-12,,5.8281,5.8286,1.0391,111.946,4.558,4.660,,,,,,,,,,,,
CalCOFI,2101RL,014,,2101_014u,18-Jan-2021 12:04:17,18-Jan-2021 04:04:17,30.84124,-121.59064,093.3 090.0,093.3,090.0,513.000,517.196,,5.8771,,5.8780,,5.8776,34.2712,,34.2770,34.2653,,34.2673,34.2722,0.3212,,0.3361,0.3246,0.3269,,0.3452,0.3312,0.3279,13.968,14.8819,14.2325,14.216,15.9850,14.5189,14.3757,0.0329,,,, ,, , ,26.9978,,26.9930,,0.6731,84.5119,,,,1.8367E+00,,1.0000E-12,,5.8325,5.8334,1.0420,112.096,4.614,4.695,,,,,,,,,,,,
CalCOFI,2101RL,014,,2101_014u,18-Jan-2021 12:04:15,18-Jan-2021 04:04:15,30.84126,-121.59066,093.3 090.0,093.3,090.0,512.000,516.187,,5.8788,,5.8795,,5.8792,34.2707,,34.2765,34.2648,,34.2668,34.2717,0.3209,,0.3358,0.3243,0.3268,,0.3451,0.3311,0.3277,13.957,14.8704,14.2209,14.210,15.9728,14.5125,14.3667,0.0329,,,, ,, , ,26.9972,,26.9924,,0.6733,84.5077,,,,1.8474E+00,,1.0000E-12,,5.8343,5.8350,1.0416,112.141,4.610,4.694,,,,,,,,,,,,
CalCOFI,2101RL,014,,2101_014u,18-Jan-2021 12:04:17,18-Jan-2021 04:04:17,30.84125,-121.59066,093.3 090.0,093.3,090.0,511.000,515.177,,5.8799,,5.8820,,5.8810,34.2703,,34.2761,34.2640,,34.2660,34.2711,0.3277,,0.3429,0.3315,0.3295,,0.3480,0.3340,0.3328,14.250,15.1771,14.5299,14.329,16.2986,14.6391,14.5845,0.0326,,,, ,, , ,26.9967,,26.9915,,0.6735,84.5038,,,,1.8474E+00,,1.0000E-12,,5.8355,5.8376,1.0416,112.177,4.707,4.733,,,,,,,,,,,,
CalCOFI,2101RL,014,,2101_014u,18-Jan-2021 12:04:18,18-Jan-2021 04:04:18,30.84124,-121.59066,093.3 090.0,093.3,090.0,510.000,514.168,,5.8862,,5.8814,,5.8838,34.2693,,34.2751,34.2643,,34.2663,34.2707,0.3254,,0.3405,0.3291,0.3362,,0.3551,0.3411,0.3351,14.148,15.0703,14.4223,14.620,16.1852,14.9487,14.6855,0.0327,,,, ,, , ,26.9951,,26.9918,,0.6730,84.5139,,,,1.8474E+00,,1.0000E-12,,5.8419,5.8370,1.0416,112.323,4.674,4.829,,,,,,,,,,,,
CalCOFI,2101RL,014,,2101_014u,18-Jan-2021 12:04:19,18-Jan-2021 04:04:19,30.84124,-121.59066,093.3 090.0,093.3,090.0,509.000,513.158,,5.8990,,5.8911,,5.8951,34.2677,,34.2735,34.2629,,34.2649,34.2692,0.3317,,0.3471,0.3357,0.3223,,0.3403,0.3263,0.3310,14.424,15.3592,14.7135,14.016,16.4921,14.3061,14.5098,0.0331,,,, ,, , ,26.9922,,26.9894,,0.6732,84.5103,,,,1.8474E+00,,1.0000E-12,,5.8547,5.8468,1.0416,112.592,4.767,4.631,,,,,,,,,,,,
CalCOFI,2101RL,014,,2101_014u,18-Jan-2021 12:04:20,18-Jan-2021 04:04:20,30.84124,-121.59067,093.3 090.0,093.3,090.0,508.000,512.149,,5.9078,,5.9036,,5.9057,34.2674,,34.2732,34.2617,,34.2637,34.2685,0.3353,,0.3508,0.3395,0.3346,,0.3534,0.3394,0.3395,14.581,15.5236,14.8791,14.549,16.6667,14.8732,14.8762,0.0329,,,, ,, , ,26.9909,,26.9869,,0.6740,84.4926,,,,1.8474E+00,,1.0000E-12,,5.8635,5.8594,1.0416,112.713,4.819,4.808,,,,,,,,,,,,
CalCOFI,2101RL,014,,2101_014u,18-Jan-2021 12:04:21,18-Jan-2021 04:04:21,30.84124,-121.59068,093.3 090.0,093.3,090.0,507.000,511.140,,5.9195,,5.9129,,5.9162,34.2672,,34.2730,34.2616,,34.2636,34.2683,0.3365,,0.3521,0.3408,0.3367,,0.3556,0.3416,0.3412,14.632,15.5770,14.9329,14.643,16.7234,14.9732,14.9531,0.0330,,,, ,, , ,26.9893,,26.9857,,0.6731,84.5121,,,,1.8474E+00,,1.0000E-12,,5.8753,5.8687,1.0416,112.865,4.838,4.840,,,,,,,,,,,,
CalCOFI,2101RL,014,,2101_014u,18-Jan-2021 12:04:22,18-Jan-2021 04:04:22,30.84124,-121.59068,093.3 090.0,093.3,090.0,506.000,510.130,,5.9290,,5.9256,,5.9273,34.2665,,34.2723,34.2607,,34.2627,34.2675,0.3316,,0.3470,0.3356,0.3404,,0.3595,0.3456,0.3406,14.421,15.3561,14.7103,14.804,16.4888,15.1445,14.9274,0.0327,,,, ,, , ,26.9875,,26.9834,,0.6736,84.5012,,,,1.8474E+00,,1.0000E-12,,5.8849,5.8815,1.0416,113.033,4.769,4.895,,,,,,,,,,,,
CalCOFI,2101RL,014,,2101_014u,18-Jan-2021 12:04:24,18-Jan-2021 04:04:24,30.84124,-121.59069,093.3 090.0,093.3,090.0,505.000,509.121,,5.9337,,5.9371,,5.9354,34.2659,,34.2717,34.2597,,34.2617,34.2667,0.3388,,0.3545,0.3432,0.3400,,0.3591,0.3452,0.3442,14.734,15.6838,15.0405,14.784,16.8368,15.1232,15.0819,0.0330,,,, ,, , ,26.9864,,26.9811,,0.6734,84.5060,,,,1.8474E+00,,1.0000E-12,,5.8896,5.8931,1.0416,113.124,4.873,4.889,,,,,,,,,,,,
CalCOFI,2101RL,014,,2101_014u,18-Jan-2021 12:04:25,18-Jan-2021 04:04:25,30.84124,-121.59070,093.3 090.0,093.3,090.0,504.000,508.111,,5.9453,,5.9383,,5.9418,34.2650,,34.2708,34.2597,,34.2617,34.2663,0.3387,,0.3544,0.3431,0.3356,,0.3544,0.3405,0.3418,14.731,15.6806,15.0374,14.593,16.8335,14.9200,14.9787,0.0336,,,, ,, , ,26.9843,,26.9810,,0.6737,84.4983,,,,1.8474E+00,,1.0000E-12,,5.9013,5.8943,1.0416,113.327,4.873,4.827,,,,,,,,,,,,
CalCOFI,2101RL,014,,2101_014u,18-Jan-2021 12:04:26,18-Jan-2021 04:04:26,30.84124,-121.59070,093.3 090.0,093.3,090.0,503.000,507.102,,5.9515,,5.9474,,5.9495,34.2646,,34.2704,34.2588,,34.2608,34.2656,0.3431,,0.3590,0.3477,0.3356,,0.3544,0.3405,0.3441,14.922,15.8805,15.2389,14.592,17.0459,14.9189,15.0789,0.0334,,,, ,, , ,26.9832,,26.9791,,0.6734,84.5044,,,,1.8474E+00,,1.0000E-12,,5.9076,5.9034,1.0416,113.421,4.937,4.827,,,,,,,,,,,,
CalCOFI,2101RL,014,,2101_014u,18-Jan-2021 12:04:27,18-Jan-2021 04:04:27,30.84124,-121.59070,093.3 090.0,093.3,090.0,502.000,506.093,,5.9557,,5.9495,,5.9526,34.2646,,34.2704,34.2588,,34.2608,34.2656,0.3380,,0.3537,0.3424,0.3424,,0.3617,0.3477,0.3451,14.700,15.6482,15.0047,14.892,16.7990,15.2381,15.1214,0.0327,,,, ,, , ,26.9826,,26.9788,,0.6737,84.4982,,,,1.8474E+00,,1.0000E-12,,5.9118,5.9057,1.0416,113.468,4.864,4.927,,,,,,,,,,,,
CalCOFI,2101RL,014,,2101_014u,18-Jan-2021 12:04:27,18-Jan-2021 04:04:27,30.84122,-121.59072,093.3 090.0,093.3,090.0,501.000,505.083,,5.9610,,5.9571,,5.9591,34.2644,,34.2702,34.2589,,34.2609,34.2656,0.3388,,0.3545,0.3432,0.3517,,0.3715,0.3576,0.3504,14.733,15.6827,15.0395,15.294,16.8357,15.6658,15.3527,0.0323,,,, ,, , ,26.9818,,26.9780,,0.6737,84.4983,,,,1.8474E+00,,1.0000E-12,,5.9172,5.9133,1.0416,113.540,4.875,5.060,,,,,,,,,,,,
CalCOFI,2101RL,014,,2101_014u,18-Jan-2021 12:04:28,18-Jan-2021 04:04:28,30.84122,-121.59072,093.3 090.0,093.3,090.0,500.000,504.074,,5.9639,,5.9630,,5.9635,34.2645,,34.2703,34.2587,,34.2607,34.2655,0.3407,,0.3565,0.3452,0.3451,,0.3645,0.3506,0.3479,14.817,15.7706,15.1281,15.006,16.9291,15.3594,15.2438,0.0325,,,, ,, , ,26.9815,,26.9770,,0.6734,84.5050,,,,1.8474E+00,,1.0000E-12,,5.9202,5.9193,1.0416,113.554,4.904,4.966,,,,,,,,,,,,
CalCOFI,2101RL,014,,2101_014u,18-Jan-2021 12:04:29,18-Jan-2021 04:04:29,30.84122,-121.59072,093.3 090.0,093.3,090.0,499.000,503.064,,5.9659,,5.9658,,5.9659,34.2643,,34.2701,34.2585,,34.2605,34.2653,0.3441,,0.3600,0.3488,0.3455,,0.3650,0.3510,0.3499,14.963,15.9235,15.2821,15.026,17.0915,15.3807,15.3314,0.0337,,,, ,, , ,26.9811,,26.9765,,0.6738,84.4964,,,,1.8474E+00,,1.0000E-12,,5.9223,5.9221,1.0416,113.581,4.952,4.973,,,,,,,,,,,,
CalCOFI,2101RL,014,,2101_014u,18-Jan-2021 12:04:30,18-Jan-2021 04:04:30,30.84122,-121.59072,093.3 090.0,093.3,090.0,498.000,502.055,,5.9672,,5.9668,,5.9670,34.2642,,34.2700,34.2583,,34.2603,34.2652,0.3448,,0.3608,0.3495,0.3494,,0.3691,0.3552,0.3524,14.995,15.9570,15.3159,15.194,17.1271,15.5594,15.4377,0.0324,,,, ,, , ,26.9808,,26.9762,,0.6734,84.5057,,,,1.8474E+00,,1.0000E-12,,5.9237,5.9233,1.0416,113.593,4.963,5.029,,,,,,,,,,,,
CalCOFI,2101RL,014,,2101_014u,18-Jan-2021 12:04:31,18-Jan-2021 04:04:31,30.84120,-121.59072,093.3 090.0,093.3,090.0,497.000,501.046,,5.9699,,5.9709,,5.9704,34.2638,,34.2696,34.2579,,34.2599,34.2648,0.3415,,0.3573,0.3460,0.3477,,0.3673,0.3533,0.3497,14.852,15.8073,15.1650,15.119,16.9681,15.4796,15.3223,0.0334,,,, ,, , ,26.9802,,26.9754,,0.6736,84.5005,,,,1.8474E+00,,1.0000E-12,,5.9264,5.9274,1.0416,113.643,4.916,5.004,,,,,,,,,,,,
CalCOFI,2101RL,014,,2101_014u,18-Jan-2021 12:04:33,18-Jan-2021 04:04:33,30.84120,-121.59072,093.3 090.0,093.3,090.0,496.000,500.036,,5.9708,,5.9713,,5.9711,34.2634,,34.2692,34.2577,,34.2597,34.2645,0.3462,,0.3622,0.3510,0.3461,,0.3656,0.3516,0.3513,15.054,16.0187,15.3781,15.051,17.1927,15.4073,15.3927,0.0328,,,, ,, , ,26.9797,,26.9752,,0.6735,84.5026,,,,1.8474E+00,,1.0000E-12,,5.9274,5.9279,1.0416,113.672,4.983,4.982,,,,,,,,,,,,
CalCOFI,2101RL,014,,2101_014u,18-Jan-2021 12:04:35,18-Jan-2021 04:04:35,30.84120,-121.59072,093.3 090.0,093.3,090.0,495.000,499.027,,5.9763,,5.9754,,5.9759,34.2629,,34.2687,34.2575,,34.2595,34.2641,0.3480,,0.3641,0.3529,0.3455,,0.3650,0.3510,0.3520,15.133,16.1014,15.4615,15.026,17.2805,15.3807,15.4211,0.0331,,,, ,, , ,26.9786,,26.9744,,0.6736,84.5006,,,,1.8474E+00,,1.0000E-12,,5.9330,5.9321,1.0416,113.768,5.009,4.974,,,,,,,,,,,,
CalCOFI,2101RL,014,,2101_014u,18-Jan-2021 12:04:36,18-Jan-2021 04:04:36,30.84120,-121.59072,093.3 090.0,093.3,090.0,494.000,498.018,,5.9790,,5.9786,,5.9788,34.2613,,34.2671,34.2556,,34.2576,34.2624,0.3516,,0.3679,0.3567,0.3538,,0.3738,0.3598,0.3583,15.290,16.2658,15.6271,15.386,17.4551,15.7637,15.6954,0.0332,,,, ,, , ,26.9770,,26.9726,,0.6735,84.5021,,,,1.8474E+00,,1.0000E-12,,5.9358,5.9353,1.0416,113.913,5.062,5.094,,,,,,,,,,,,
CalCOFI,2101RL,014,,2101_014u,18-Jan-2021 12:04:37,18-Jan-2021 04:04:37,30.84118,-121.59074,093.3 090.0,093.3,090.0,493.000,497.008,,5.9800,,5.9801,,5.9801,34.2603,,34.2661,34.2546,,34.2566,34.2614,0.3592,,0.3758,0.3647,0.3595,,0.3798,0.3659,0.3653,15.619,16.6102,15.9742,15.633,17.8210,16.0265,16.0004,0.0326,,,, ,, , ,26.9761,,26.9716,,0.6740,84.4917,,,,1.8474E+00,,1.0000E-12,,5.9368,5.9370,1.0416,113.984,5.171,5.175,,,,,,,,,,,,
CalCOFI,2101RL,014,,2101_014u,18-Jan-2021 12:04:38,18-Jan-2021 04:04:38,30.84118,-121.59074,093.3 090.0,093.3,090.0,492.000,495.999,,5.9845,,5.9845,,5.9845,34.2568,,34.2626,34.2516,,34.2536,34.2581,0.3640,,0.3809,0.3698,0.3579,,0.3781,0.3642,0.3670,15.829,16.8300,16.1957,15.562,18.0545,15.9510,16.0734,0.0325,,,, ,, , ,26.9728,,26.9687,,0.6741,84.4900,,,,1.8474E+00,,1.0000E-12,,5.9414,5.9414,1.0416,114.287,5.241,5.152,,,,,,,,,,,,
CalCOFI,2101RL,014,,2101_014u,18-Jan-2021 12:04:39,18-Jan-2021 04:04:39,30.84118,-121.59074,093.3 090.0,093.3,090.0,491.000,494.990,,5.9882,,5.9862,,5.9872,34.2554,,34.2612,34.2506,,34.2526,34.2569,0.3665,,0.3835,0.3724,0.3619,,0.3824,0.3684,0.3704,15.936,16.9420,16.3086,15.739,18.1735,16.1393,16.2240,0.0324,,,, ,, , ,26.9711,,26.9676,,0.6741,84.4900,,,,1.8474E+00,,1.0000E-12,,5.9452,5.9432,1.0416,114.431,5.277,5.211,,,,,,,,,,,,
CalCOFI,2101RL,014,,2101_014u,18-Jan-2021 12:04:40,18-Jan-2021 04:04:40,30.84118,-121.59074,093.3 090.0,093.3,090.0,490.000,493.980,,5.9938,,5.9886,,5.9912,34.2543,,34.2601,34.2502,,34.2522,34.2562,0.3683,,0.3854,0.3743,0.3615,,0.3819,0.3680,0.3712,16.017,17.0268,16.3940,15.722,18.2636,16.1212,16.2576,0.0326,,,, ,, , ,26.9696,,26.9669,,0.6741,84.4900,,,,1.8474E+00,,1.0000E-12,,5.9509,5.9457,1.0416,114.572,5.304,5.205,,,,,,,,,,,,
CalCOFI,2101RL,014,,2101_014u,18-Jan-2021 12:04:40,18-Jan-2021 04:04:40,30.84116,-121.59072,093.3 090.0,093.3,090.0,489.000,492.971,,6.0041,,6.0021,,6.0031,34.2527,,34.2585,34.2474,,34.2494,34.2540,0.3705,,0.3877,0.3766,0.3656,,0.3863,0.3724,0.3745,16.114,17.1283,16.4964,15.898,18.3714,16.3085,16.4025,0.0319,,,, ,, , ,26.9670,,26.9631,,0.6741,84.4900,,,,1.8474E+00,,1.0000E-12,,5.9613,5.9593,1.0416,114.810,5.337,5.265,,,,,,,,,,,,
CalCOFI,2101RL,014,,2101_014u,18-Jan-2021 12:04:41,18-Jan-2021 04:04:41,30.84116,-121.59072,093.3 090.0,093.3,090.0,488.000,491.962,,6.0096,,6.0079,,6.0088,34.2522,,34.2580,34.2465,,34.2485,34.2533,0.3728,,0.3901,0.3791,0.3724,,0.3935,0.3796,0.3794,16.210,17.2288,16.5976,16.195,18.4782,16.6245,16.6111,0.0326,,,, ,, , ,26.9659,,26.9617,,0.6738,84.4973,,,,1.8474E+00,,1.0000E-12,,5.9668,5.9651,1.0416,114.904,5.370,5.364,,,,,,,,,,,,
CalCOFI,2101RL,014,,2101_014u,18-Jan-2021 12:04:42,18-Jan-2021 04:04:42,30.84116,-121.59072,093.3 090.0,093.3,090.0,487.000,490.952,,6.0113,,6.0116,,6.0115,34.2519,,34.2577,34.2461,,34.2481,34.2529,0.3757,,0.3931,0.3821,0.3732,,0.3944,0.3805,0.3813,16.337,17.3618,16.7316,16.229,18.6194,16.6606,16.6961,0.0332,,,, ,, , ,26.9655,,26.9608,,0.6740,84.4912,,,,1.8474E+00,,1.0000E-12,,5.9686,5.9689,1.0416,114.936,5.412,5.376,,,,,,,,,,,,
CalCOFI,2101RL,014,,2101_014u,18-Jan-2021 12:04:43,18-Jan-2021 04:04:43,30.84116,-121.59072,093.3 090.0,093.3,090.0,486.000,489.943,,6.0183,,6.0144,,6.0164,34.2514,,34.2572,34.2456,,34.2476,34.2524,0.3783,,0.3958,0.3849,0.3760,,0.3973,0.3834,0.3842,16.450,17.4801,16.8508,16.353,18.7451,16.7926,16.8217,0.0327,,,, ,, , ,26.9642,,26.9601,,0.6732,84.5092,,,,1.8474E+00,,1.0000E-12,,5.9757,5.9718,1.0416,115.053,5.451,5.417,,,,,,,,,,,,
CalCOFI,2101RL,014,,2101_014u,18-Jan-2021 12:04:44,18-Jan-2021 04:04:44,30.84114,-121.59072,093.3 090.0,093.3,090.0,485.000,488.934,,6.0343,,6.0268,,6.0306,34.2512,,34.2570,34.2454,,34.2474,34.2522,0.3805,,0.3981,0.3872,0.3797,,0.4013,0.3874,0.3873,16.548,17.5826,16.9542,16.511,18.8540,16.9607,16.9575,0.0326,,,, ,, , ,26.9620,,26.9584,,0.6741,84.4901,,,,1.8474E+00,,1.0000E-12,,5.9917,5.9842,1.0416,115.265,5.485,5.472,,,,,,,,,,,,
CalCOFI,2101RL,014,,2101_014u,18-Jan-2021 12:04:45,18-Jan-2021 04:04:45,30.84114,-121.59072,093.3 090.0,093.3,090.0,484.000,487.925,,6.0506,,6.0444,,6.0475,34.2509,,34.2567,34.2450,,34.2470,34.2519,0.3820,,0.3997,0.3888,0.3781,,0.3996,0.3857,0.3873,16.611,17.6486,17.0207,16.443,18.9241,16.8883,16.9545,0.0331,,,, ,, , ,26.9597,,26.9558,,0.6736,84.5012,,,,1.9356E+00,,1.0000E-12,,6.0080,6.0019,1.0416,115.482,5.508,5.451,,,,,,,,,,,,
CalCOFI,2101RL,014,,2101_014u,18-Jan-2021 12:04:46,18-Jan-2021 04:04:46,30.84114,-121.59072,093.3 090.0,093.3,090.0,483.000,486.915,,6.0622,,6.0551,,6.0587,34.2498,,34.2556,34.2447,,34.2467,34.2512,0.3864,,0.4043,0.3934,0.3864,,0.4084,0.3945,0.3940,16.803,17.8496,17.2232,16.805,19.1376,17.2735,17.2484,0.0321,,,, ,, , ,26.9574,,26.9542,,0.6737,84.4985,,,,1.9314E+00,,1.0000E-12,,6.0197,6.0126,1.0416,115.704,5.573,5.572,,,,,,,,,,,,
CalCOFI,2101RL,014,,2101_014u,18-Jan-2021 12:04:47,18-Jan-2021 04:04:47,30.84114,-121.59071,093.3 090.0,093.3,090.0,482.000,485.906,,6.0663,,6.0615,,6.0639,34.2489,,34.2547,34.2438,,34.2458,34.2503,0.3882,,0.4062,0.3953,0.3865,,0.4085,0.3946,0.3950,16.884,17.9344,17.3087,16.810,19.2277,17.2788,17.2938,0.0325,,,, ,, , ,26.9561,,26.9526,,0.6739,84.4949,,,,1.8467E+00,,1.0000E-12,,6.0239,6.0191,1.0416,115.808,5.600,5.575,,,,,,,,,,,,
CalCOFI,2101RL,014,,2101_014u,18-Jan-2021 12:04:48,18-Jan-2021 04:04:48,30.84114,-121.59070,093.3 090.0,093.3,090.0,481.000,484.897,,6.0762,,6.0634,,6.0698,34.2480,,34.2538,34.2432,,34.2452,34.2495,0.3896,,0.4077,0.3968,0.3905,,0.4128,0.3989,0.3979,16.944,17.9972,17.3720,16.984,19.2944,17.4639,17.4180,0.0323,,,, ,, , ,26.9541,,26.9520,,0.6740,84.4920,,,,2.3816E+00,,1.0000E-12,,6.0338,6.0211,1.0416,115.994,5.621,5.633,,,,,,,,,,,,
CalCOFI,2101RL,014,,2101_014u,18-Jan-2021 12:04:49,18-Jan-2021 04:04:49,30.84114,-121.59070,093.3 090.0,093.3,090.0,480.000,483.887,,6.0847,,6.0818,,6.0833,34.2476,,34.2534,34.2418,,34.2438,34.2486,0.3909,,0.4090,0.3981,0.3952,,0.4177,0.4039,0.4010,16.998,18.0537,17.4289,17.187,19.3545,17.6799,17.5544,0.0336,,,, ,, , ,26.9527,,26.9485,,0.6730,84.5134,,,,1.8492E+00,,1.0000E-12,,6.0424,6.0395,1.0416,116.122,5.640,5.702,,,,,,,,,,,,
CalCOFI,2101RL,014,,2101_014u,18-Jan-2021 12:04:50,18-Jan-2021 04:04:50,30.84114,-121.59070,093.3 090.0,093.3,090.0,479.000,482.878,,6.0876,,6.0896,,6.0886,34.2480,,34.2538,34.2418,,34.2438,34.2488,0.3944,,0.4127,0.4018,0.3862,,0.4082,0.3943,0.3981,17.153,18.2160,17.5925,16.794,19.5268,17.2618,17.4272,0.0331,,,, ,, , ,26.9527,,26.9476,,0.6741,84.4910,,,,1.8474E+00,,1.0000E-12,,6.0453,6.0474,1.0416,116.113,5.692,5.573,,,,,,,,,,,,
CalCOFI,2101RL,014,,2101_014u,18-Jan-2021 12:04:51,18-Jan-2021 04:04:51,30.84112,-121.59070,093.3 090.0,093.3,090.0,478.000,481.869,,6.0985,,6.0891,,6.0938,34.2471,,34.2529,34.2418,,34.2438,34.2484,0.3962,,0.4146,0.4037,0.3884,,0.4105,0.3966,0.4002,17.231,18.2976,17.6747,16.891,19.6136,17.3650,17.5199,0.0337,,,, ,, , ,26.9506,,26.9476,,0.6736,84.5017,,,,1.8474E+00,,1.0000E-12,,6.0563,6.0470,1.0416,116.309,5.720,5.606,,,,,,,,,,,,
CalCOFI,2101RL,014,,2101_014u,18-Jan-2021 12:04:52,18-Jan-2021 04:04:52,30.84112,-121.59070,093.3 090.0,093.3,090.0,477.000,480.860,,6.1085,,6.0995,,6.1040,34.2471,,34.2529,34.2413,,34.2433,34.2481,0.3937,,0.4119,0.4011,0.3985,,0.4212,0.4074,0.4043,17.123,18.1846,17.5608,17.329,19.4935,17.8310,17.6959,0.0315,,,, ,, , ,26.9493,,26.9458,,0.6738,84.4955,,,,1.8474E+00,,1.0000E-12,,6.0664,6.0574,1.0416,116.435,5.685,5.752,,,,,,,,,,,,
CalCOFI,2101RL,014,,2101_014u,18-Jan-2021 12:04:53,18-Jan-2021 04:04:53,30.84112,-121.59070,093.3 090.0,093.3,090.0,476.000,479.850,,6.1180,,6.0943,,6.1062,34.2469,,34.2527,34.2413,,34.2433,34.2480,0.3918,,0.4100,0.3991,0.3933,,0.4157,0.4018,0.4005,17.036,18.0935,17.4690,17.105,19.3967,17.5927,17.5309,0.0319,,,, ,, , ,26.9479,,26.9465,,0.6735,84.5032,,,,1.8474E+00,,1.0000E-12,,6.0759,6.0523,1.0416,116.555,5.657,5.677,,,,,,,,,,,,
CalCOFI,2101RL,014,,2101_014u,18-Jan-2021 12:04:54,18-Jan-2021 04:04:54,30.84114,-121.59072,093.3 090.0,093.3,090.0,475.000,478.841,,6.0940,,6.0957,,6.0949,34.2467,,34.2525,34.2434,,34.2454,34.2490,0.3991,,0.4176,0.4068,0.4038,,0.4269,0.4130,0.4099,17.355,18.4274,17.8056,17.562,19.7514,18.0789,17.9423,0.0320,,,, ,, , ,26.9508,,26.9480,,0.6737,84.4983,,,,1.8474E+00,,1.0000E-12,,6.0521,6.0537,1.0416,116.244,5.760,5.829,,,,,,,,,,,,
CalCOFI,2101RL,014,,2101_014u,18-Jan-2021 12:04:55,18-Jan-2021 04:04:55,30.84114,-121.59072,093.3 090.0,093.3,090.0,474.000,477.832,,6.1064,,6.1046,,6.1055,34.2463,,34.2521,34.2412,,34.2432,34.2477,0.4053,,0.4241,0.4133,0.3957,,0.4183,0.4044,0.4089,17.625,18.7101,18.0904,17.207,20.0517,17.7012,17.8958,0.0328,,,, ,, , ,26.9489,,26.9451,,0.6733,84.5064,,,,2.0320E+00,,1.0000E-12,,6.0645,6.0627,1.0416,116.420,5.851,5.712,,,,,,,,,,,,
CalCOFI,2101RL,014,,2101_014u,18-Jan-2021 12:04:57,18-Jan-2021 04:04:57,30.84113,-121.59073,093.3 090.0,093.3,090.0,473.000,476.823,,6.1349,,6.1130,,6.1240,34.2440,,34.2498,34.2405,,34.2425,34.2462,0.4084,,0.4273,0.4166,0.4040,,0.4271,0.4132,0.4149,17.760,18.8514,18.2328,17.569,20.2018,18.0864,18.1596,0.0320,,,, ,, , ,26.9434,,26.9435,,0.6734,84.5049,,,,2.5242E+00,,1.0000E-12,,6.0930,6.0712,1.0416,116.955,5.900,5.834,,,,,,,,,,,,
CalCOFI,2101RL,014,,2101_014u,18-Jan-2021 12:04:58,18-Jan-2021 04:04:58,30.84112,-121.59074,093.3 090.0,093.3,090.0,472.000,475.813,,6.1336,,6.1282,,6.1309,34.2429,,34.2487,34.2385,,34.2405,34.2446,0.4162,,0.4355,0.4248,0.4160,,0.4398,0.4260,0.4254,18.098,19.2052,18.5894,18.090,20.5777,18.6407,18.6151,0.0325,,,, ,, , ,26.9427,,26.9399,,0.6740,84.4929,,,,2.2120E+00,,1.0000E-12,,6.0918,6.0864,1.0416,117.005,6.012,6.008,,,,,,,,,,,,
CalCOFI,2101RL,014,,2101_014u,18-Jan-2021 12:04:59,18-Jan-2021 04:04:59,30.84112,-121.59074,093.3 090.0,093.3,090.0,471.000,474.804,,6.1354,,6.1391,,6.1373,34.2415,,34.2473,34.2349,,34.2369,34.2421,0.4284,,0.4483,0.4377,0.4146,,0.4383,0.4245,0.4311,18.631,19.7631,19.1517,18.032,21.1704,18.5790,18.8654,0.0320,,,, ,, , ,26.9414,,26.9357,,0.6740,84.4920,,,,1.8313E+00,,1.0000E-12,,6.0937,6.0974,1.0416,117.117,6.189,5.991,,,,,,,,,,,,
CalCOFI,2101RL,014,,2101_014u,18-Jan-2021 12:05:00,18-Jan-2021 04:05:00,30.84109,-121.59075,093.3 090.0,093.3,090.0,470.000,473.795,,6.1423,,6.1399,,6.1411,34.2394,,34.2452,34.2344,,34.2364,34.2408,0.4312,,0.4512,0.4406,0.4277,,0.4523,0.4384,0.4395,18.752,19.8898,19.2793,18.599,21.3049,19.1822,19.2308,0.0327,,,, ,, , ,26.9388,,26.9352,,0.6734,84.5043,,,,1.8474E+00,,1.0000E-12,,6.1007,6.0983,1.0416,117.356,6.231,6.179,,,,,,,,,,,,
CalCOFI,2101RL,014,,2101_014u,18-Jan-2021 12:05:01,18-Jan-2021 04:05:01,30.84108,-121.59076,093.3 090.0,093.3,090.0,469.000,472.786,,6.1593,,6.1583,,6.1588,34.2349,,34.2407,34.2295,,34.2315,34.2361,0.4338,,0.4539,0.4434,0.4299,,0.4546,0.4408,0.4421,18.864,20.0070,19.3975,18.696,21.4295,19.2854,19.3415,0.0317,,,, ,, , ,26.9332,,26.9290,,0.6733,84.5061,,,,1.8474E+00,,1.0000E-12,,6.1177,6.1167,1.0416,117.892,6.270,6.214,,,,,,,,,,,,
CalCOFI,2101RL,014,,2101_014u,18-Jan-2021 12:05:01,18-Jan-2021 04:05:01,30.84108,-121.59076,093.3 090.0,093.3,090.0,468.000,471.777,,6.1629,,6.1631,,6.1630,34.2341,,34.2399,34.2285,,34.2305,34.2352,0.4348,,0.4550,0.4444,0.4277,,0.4523,0.4384,0.4414,18.910,20.0552,19.4460,18.602,21.4806,19.1854,19.3157,0.0323,,,, ,, , ,26.9320,,26.9276,,0.6738,84.4961,,,,1.8474E+00,,1.0000E-12,,6.1214,6.1216,1.0416,117.991,6.286,6.183,,,,,,,,,,,,